CFG7ZP EDDM-LICA

Flight info

Callsign CFG7ZP
Flight time 1h 32m
Altitude 37000
Route VAVOR4N VAVOR Y106 MODSA DCT DETSA DCT ANC DCT SOR DCT POLIT/N0371F190 M620 ARBUM
Aircraft A321/M-SDE3FGHIRWY/LB1

Departure

Time 2026-05-05 16:43
Airport Munich Airport (EDDM)

Arrival

Time 2026-05-05 18:16
Airport Lamezia Terme Sant'Eufemia International Airport (LICA)
Time Latitude Longitude Altitude Speed Heading
2026-05-05 16:12 48.35232 11.78321 1486 ft 0 kts 83°
2026-05-05 16:30 48.35232 11.78320 1507 ft 1 kts 83°
2026-05-05 16:30 48.35229 11.78282 1496 ft 4 kts 83°
2026-05-05 16:30 48.35226 11.78249 1473 ft 3 kts 83°
2026-05-05 16:31 48.35226 11.78211 1476 ft 4 kts 108°
2026-05-05 16:31 48.35239 11.78182 1471 ft 4 kts 162°
2026-05-05 16:31 48.35264 11.78176 1473 ft 4 kts 173°
2026-05-05 16:31 48.35269 11.78175 1474 ft 0 kts 173°
2026-05-05 16:34 48.35268 11.78175 1474 ft 1 kts 173°
2026-05-05 16:34 48.35232 11.78178 1471 ft 9 kts 182°
2026-05-05 16:34 48.35199 11.78108 1478 ft 8 kts 261°
2026-05-05 16:34 48.35191 11.78009 1485 ft 14 kts 263°
2026-05-05 16:35 48.35168 11.77839 1471 ft 16 kts 231°
2026-05-05 16:35 48.35068 11.77832 1479 ft 14 kts 173°
2026-05-05 16:35 48.34971 11.77848 1485 ft 13 kts 173°
2026-05-05 16:35 48.34882 11.77863 1485 ft 13 kts 173°
2026-05-05 16:36 48.34770 11.77883 1485 ft 18 kts 174°
2026-05-05 16:36 48.34670 11.77954 1482 ft 16 kts 105°
2026-05-05 16:36 48.34681 11.78121 1485 ft 18 kts 84°
2026-05-05 16:36 48.34699 11.78356 1477 ft 27 kts 83°
2026-05-05 16:37 48.34723 11.78677 1485 ft 33 kts 83°
2026-05-05 16:37 48.34749 11.79017 1485 ft 32 kts 83°
2026-05-05 16:37 48.34775 11.79343 1478 ft 31 kts 83°
2026-05-05 16:37 48.34799 11.79656 1473 ft 30 kts 83°
2026-05-05 16:38 48.34822 11.79957 1485 ft 28 kts 83°
2026-05-05 16:38 48.34811 11.80163 1473 ft 15 kts 124°
2026-05-05 16:38 48.34752 11.80237 1482 ft 10 kts 161°
2026-05-05 16:38 48.34685 11.80250 1473 ft 9 kts 173°
2026-05-05 16:39 48.34625 11.80261 1475 ft 8 kts 173°
2026-05-05 16:39 48.34572 11.80270 1479 ft 7 kts 173°
2026-05-05 16:39 48.34522 11.80277 1472 ft 9 kts 181°
2026-05-05 16:39 48.34464 11.80213 1485 ft 11 kts 247°
2026-05-05 16:40 48.34455 11.80132 1485 ft 0 kts 263°
2026-05-05 16:42 48.34447 11.80037 1480 ft 27 kts 264°
2026-05-05 16:43 48.34397 11.79387 1480 ft 95 kts 263°
2026-05-05 16:43 48.34299 11.78118 1482 ft 147 kts 263°
2026-05-05 16:43 48.34164 11.76402 1586 ft 176 kts 262°
2026-05-05 16:43 48.34035 11.74613 2270 ft 170 kts 265°
2026-05-05 16:44 48.33882 11.72844 2808 ft 175 kts 259°
2026-05-05 16:44 48.33141 11.71274 2947 ft 204 kts 214°
2026-05-05 16:44 48.31691 11.70733 3163 ft 227 kts 188°
2026-05-05 16:44 48.30091 11.70647 3684 ft 231 kts 181°
2026-05-05 16:45 48.28517 11.71088 4308 ft 234 kts 158°
2026-05-05 16:45 48.27067 11.72411 4611 ft 257 kts 146°
2026-05-05 16:45 48.25488 11.73873 4940 ft 275 kts 161°
2026-05-05 16:45 48.23640 11.74654 5651 ft 277 kts 167°
2026-05-05 16:46 48.21777 11.75371 6520 ft 276 kts 168°
2026-05-05 16:46 48.19919 11.76086 7339 ft 276 kts 167°
2026-05-05 16:46 48.18129 11.76775 8078 ft 278 kts 167°
2026-05-05 16:46 48.16252 11.77498 8867 ft 279 kts 168°
2026-05-05 16:47 48.14388 11.78212 9664 ft 281 kts 168°
2026-05-05 16:47 48.12470 11.78945 10158 ft 293 kts 168°
2026-05-05 16:47 48.10418 11.79721 10312 ft 316 kts 168°
2026-05-05 16:47 48.08214 11.80555 10524 ft 335 kts 167°
2026-05-05 16:48 48.05931 11.81424 11057 ft 342 kts 167°
2026-05-05 16:48 48.03613 11.82313 11685 ft 346 kts 168°
2026-05-05 16:48 48.01267 11.83210 12329 ft 350 kts 168°
2026-05-05 16:48 47.98894 11.84112 12978 ft 354 kts 168°
2026-05-05 16:49 47.96493 11.85023 13621 ft 358 kts 168°
2026-05-05 16:49 47.94064 11.85945 14220 ft 361 kts 168°
2026-05-05 16:49 47.91621 11.86871 14834 ft 363 kts 168°
2026-05-05 16:49 47.89163 11.87800 15467 ft 366 kts 168°
2026-05-05 16:50 47.86689 11.88734 16103 ft 368 kts 168°
2026-05-05 16:50 47.84203 11.89674 16727 ft 370 kts 168°
2026-05-05 16:50 47.81704 11.90618 17325 ft 372 kts 168°
2026-05-05 16:50 47.79187 11.91563 17938 ft 374 kts 168°
2026-05-05 16:51 47.76658 11.92510 18459 ft 376 kts 168°
2026-05-05 16:51 47.74115 11.93463 18949 ft 378 kts 168°
2026-05-05 16:51 47.71558 11.94424 19457 ft 380 kts 168°
2026-05-05 16:51 47.68990 11.95389 19945 ft 382 kts 168°
2026-05-05 16:52 47.66411 11.96360 20443 ft 383 kts 168°
2026-05-05 16:52 47.63817 11.97337 20922 ft 386 kts 168°
2026-05-05 16:52 47.61241 11.98305 21373 ft 388 kts 168°
2026-05-05 16:52 47.58618 11.99288 21758 ft 391 kts 169°
2026-05-05 16:53 47.55979 12.00275 22203 ft 392 kts 168°
2026-05-05 16:53 47.53325 12.01262 22672 ft 394 kts 169°
2026-05-05 16:53 47.51527 12.01927 22983 ft 395 kts 169°
2026-05-05 16:53 47.47982 12.03239 23563 ft 398 kts 168°
2026-05-05 16:54 47.45289 12.04241 23954 ft 400 kts 168°
2026-05-05 16:54 47.42589 12.05248 24324 ft 402 kts 169°
2026-05-05 16:54 47.40751 12.05931 24598 ft 404 kts 169°
2026-05-05 16:54 47.38021 12.06942 24957 ft 406 kts 169°
2026-05-05 16:55 47.35267 12.07961 25271 ft 410 kts 169°
2026-05-05 16:55 47.32524 12.08974 25613 ft 413 kts 169°
2026-05-05 16:55 47.29731 12.10004 25966 ft 415 kts 169°
2026-05-05 16:55 47.26921 12.11041 26318 ft 417 kts 169°
2026-05-05 16:56 47.24098 12.12085 26696 ft 419 kts 169°
2026-05-05 16:56 47.21261 12.13132 27038 ft 422 kts 169°
2026-05-05 16:56 47.18408 12.14184 27342 ft 424 kts 169°
2026-05-05 16:56 47.15543 12.15242 27672 ft 425 kts 169°
2026-05-05 16:57 47.12664 12.16303 27941 ft 429 kts 169°
2026-05-05 16:57 47.09757 12.17368 28225 ft 432 kts 169°
2026-05-05 16:57 47.06834 12.18430 28540 ft 434 kts 170°
2026-05-05 16:57 47.03896 12.19500 28891 ft 436 kts 169°
2026-05-05 16:58 47.00947 12.20575 29218 ft 438 kts 169°
2026-05-05 16:58 46.97980 12.21659 29524 ft 440 kts 169°
2026-05-05 16:58 46.95004 12.22748 29827 ft 442 kts 169°
2026-05-05 16:58 46.92018 12.23835 30189 ft 443 kts 170°
2026-05-05 16:59 46.89020 12.24924 30500 ft 443 kts 170°
2026-05-05 16:59 46.86026 12.26015 30869 ft 443 kts 170°
2026-05-05 16:59 46.83047 12.27135 31272 ft 442 kts 169°
2026-05-05 16:59 46.80120 12.28270 31655 ft 441 kts 169°
2026-05-05 17:00 46.77121 12.29453 31968 ft 441 kts 169°
2026-05-05 17:00 46.74197 12.30610 32303 ft 441 kts 169°
2026-05-05 17:00 46.71240 12.31783 32668 ft 440 kts 169°
2026-05-05 17:00 46.68283 12.32951 33034 ft 440 kts 169°
2026-05-05 17:01 46.65332 12.34111 33393 ft 439 kts 169°
2026-05-05 17:01 46.62389 12.35258 33809 ft 437 kts 169°
2026-05-05 17:01 46.59454 12.36397 34175 ft 436 kts 169°
2026-05-05 17:01 46.56524 12.37533 34479 ft 435 kts 169°
2026-05-05 17:02 46.53604 12.38659 34737 ft 435 kts 169°
2026-05-05 17:02 46.50679 12.39792 34993 ft 435 kts 169°
2026-05-05 17:02 46.47753 12.40933 35240 ft 435 kts 169°
2026-05-05 17:02 46.44826 12.42074 35507 ft 435 kts 169°
2026-05-05 17:03 46.41906 12.43208 35804 ft 435 kts 169°
2026-05-05 17:03 46.38982 12.44333 36071 ft 434 kts 169°
2026-05-05 17:03 46.36061 12.45454 36348 ft 434 kts 169°
2026-05-05 17:03 46.33136 12.46579 36634 ft 434 kts 169°
2026-05-05 17:04 46.30220 12.47701 36897 ft 434 kts 169°
2026-05-05 17:04 46.27300 12.48825 36992 ft 435 kts 169°
2026-05-05 17:04 46.21444 12.51071 37006 ft 436 kts 169°
2026-05-05 17:05 46.15544 12.53317 37004 ft 443 kts 169°
2026-05-05 17:05 46.09519 12.55615 37004 ft 452 kts 169°
2026-05-05 17:06 46.03439 12.57931 37003 ft 457 kts 169°
2026-05-05 17:06 45.97274 12.60278 37002 ft 458 kts 169°
2026-05-05 17:07 45.91103 12.62628 37004 ft 458 kts 169°
2026-05-05 17:07 45.84937 12.64965 36988 ft 459 kts 169°
2026-05-05 17:08 45.78760 12.67303 36977 ft 460 kts 169°
2026-05-05 17:08 45.72569 12.69628 36992 ft 460 kts 169°
2026-05-05 17:09 45.66371 12.71949 37003 ft 461 kts 169°
2026-05-05 17:09 45.60224 12.74250 36999 ft 462 kts 169°
2026-05-05 17:10 45.54009 12.76578 36999 ft 462 kts 169°
2026-05-05 17:10 45.47788 12.78896 37001 ft 462 kts 169°
2026-05-05 17:11 45.41566 12.81218 36983 ft 463 kts 169°
2026-05-05 17:11 45.35325 12.83543 36979 ft 464 kts 169°
2026-05-05 17:12 45.29079 12.85851 36967 ft 464 kts 169°
2026-05-05 17:12 45.22822 12.88173 36971 ft 465 kts 169°
2026-05-05 17:13 45.16555 12.90497 36967 ft 466 kts 170°
2026-05-05 17:13 45.10274 12.92807 36972 ft 467 kts 170°
2026-05-05 17:14 45.03980 12.95115 36989 ft 467 kts 170°
2026-05-05 17:14 44.97692 12.97428 36961 ft 468 kts 171°
2026-05-05 17:15 44.91386 12.99730 36968 ft 468 kts 171°
2026-05-05 17:15 44.85114 13.02021 36971 ft 469 kts 171°
2026-05-05 17:16 44.78781 13.04323 36960 ft 470 kts 171°
2026-05-05 17:16 44.72437 13.06617 36964 ft 471 kts 171°
2026-05-05 17:17 44.66077 13.08922 36970 ft 472 kts 171°
2026-05-05 17:17 44.59715 13.11230 36969 ft 473 kts 171°
2026-05-05 17:18 44.53343 13.13537 36975 ft 473 kts 171°
2026-05-05 17:18 44.46966 13.15837 36979 ft 473 kts 171°
2026-05-05 17:19 44.40583 13.18120 36982 ft 473 kts 172°
2026-05-05 17:19 44.34192 13.20403 36965 ft 474 kts 171°
2026-05-05 17:20 44.27845 13.22682 36972 ft 475 kts 171°
2026-05-05 17:20 44.21443 13.24966 36956 ft 475 kts 172°
2026-05-05 17:21 44.15035 13.27244 36974 ft 475 kts 172°
2026-05-05 17:22 44.05428 13.30652 36975 ft 475 kts 172°
2026-05-05 17:22 43.99023 13.32927 36975 ft 475 kts 172°
2026-05-05 17:23 43.92612 13.35204 36991 ft 476 kts 172°
2026-05-05 17:23 43.86196 13.37461 37002 ft 476 kts 172°
2026-05-05 17:24 43.79770 13.39708 37010 ft 476 kts 172°
2026-05-05 17:24 43.73347 13.41954 37023 ft 476 kts 172°
2026-05-05 17:25 43.66923 13.44209 37026 ft 476 kts 172°
2026-05-05 17:25 43.60552 13.46443 37009 ft 475 kts 172°
2026-05-05 17:26 43.54129 13.48594 37006 ft 474 kts 174°
2026-05-05 17:26 43.47679 13.50494 36995 ft 474 kts 175°
2026-05-05 17:27 43.41219 13.52339 36984 ft 475 kts 174°
2026-05-05 17:27 43.34835 13.54957 37000 ft 483 kts 166°
2026-05-05 17:28 43.28544 13.58209 37003 ft 483 kts 165°
2026-05-05 17:28 43.22248 13.61464 37005 ft 483 kts 165°
2026-05-05 17:29 43.15953 13.64711 37009 ft 484 kts 166°
2026-05-05 17:29 43.09642 13.67951 37018 ft 485 kts 166°
2026-05-05 17:30 43.03315 13.71185 37030 ft 485 kts 166°
2026-05-05 17:30 42.97028 13.74403 37024 ft 486 kts 166°
2026-05-05 17:31 42.90700 13.77643 37031 ft 486 kts 166°
2026-05-05 17:31 42.84364 13.80868 37038 ft 486 kts 166°
2026-05-05 17:32 42.78028 13.84087 37030 ft 486 kts 166°
2026-05-05 17:32 42.71690 13.87303 37021 ft 486 kts 166°
2026-05-05 17:33 42.65346 13.90511 37030 ft 487 kts 166°
2026-05-05 17:33 42.58994 13.93712 37036 ft 487 kts 166°
2026-05-05 17:34 42.52639 13.96912 37033 ft 488 kts 166°
2026-05-05 17:34 42.46273 14.00122 37033 ft 488 kts 166°
2026-05-05 17:35 42.39953 14.03297 37041 ft 488 kts 166°
2026-05-05 17:35 42.33585 14.06483 37040 ft 488 kts 166°
2026-05-05 17:36 42.27216 14.09665 37042 ft 488 kts 166°
2026-05-05 17:36 42.20847 14.12839 37048 ft 488 kts 166°
2026-05-05 17:37 42.14484 14.15996 37040 ft 487 kts 166°
2026-05-05 17:37 42.08135 14.19158 37027 ft 486 kts 166°
2026-05-05 17:38 42.01775 14.22306 37038 ft 488 kts 166°
2026-05-05 17:38 41.95438 14.25430 37041 ft 489 kts 166°
2026-05-05 17:39 41.89051 14.28576 37044 ft 489 kts 166°
2026-05-05 17:39 41.82666 14.31722 37065 ft 489 kts 165°
2026-05-05 17:40 41.76285 14.34861 37072 ft 488 kts 166°
2026-05-05 17:40 41.69906 14.37991 37044 ft 488 kts 166°
2026-05-05 17:41 41.63529 14.41104 37059 ft 488 kts 166°
2026-05-05 17:41 41.57145 14.44212 37066 ft 489 kts 166°
2026-05-05 17:42 41.50751 14.47329 37086 ft 489 kts 166°
2026-05-05 17:42 41.44400 14.50418 37071 ft 489 kts 166°
2026-05-05 17:43 41.38002 14.53522 37084 ft 489 kts 166°
2026-05-05 17:43 41.31607 14.56619 37093 ft 489 kts 166°
2026-05-05 17:44 41.25202 14.59701 37076 ft 489 kts 165°
2026-05-05 17:44 41.18883 14.63106 37088 ft 492 kts 160°
2026-05-05 17:45 41.12690 14.66999 37098 ft 493 kts 159°
2026-05-05 17:45 41.06524 14.70970 37082 ft 492 kts 159°
2026-05-05 17:46 41.01403 14.74231 37081 ft 491 kts 159°
2026-05-05 17:46 40.95234 14.78109 37084 ft 491 kts 160°
2026-05-05 17:47 40.88054 14.82582 37089 ft 490 kts 160°
2026-05-05 17:47 40.82884 14.85810 37094 ft 491 kts 160°
2026-05-05 17:48 40.76748 14.89643 37076 ft 491 kts 160°
2026-05-05 17:48 40.70568 14.93495 37076 ft 492 kts 159°
2026-05-05 17:49 40.64362 14.97347 37087 ft 493 kts 160°
2026-05-05 17:49 40.58147 15.01190 37086 ft 494 kts 160°
2026-05-05 17:50 40.51917 15.05047 37091 ft 495 kts 159°
2026-05-05 17:50 40.45691 15.08912 37090 ft 495 kts 159°
2026-05-05 17:51 40.39460 15.12763 37088 ft 495 kts 159°
2026-05-05 17:51 40.33225 15.16592 37072 ft 495 kts 159°
2026-05-05 17:52 40.27030 15.20391 37085 ft 495 kts 159°
2026-05-05 17:52 40.20791 15.24212 37089 ft 495 kts 159°
2026-05-05 17:53 40.14572 15.28021 36899 ft 487 kts 159°
2026-05-05 17:53 40.11537 15.29883 36632 ft 478 kts 159°
2026-05-05 17:53 40.08537 15.31714 36363 ft 475 kts 159°
2026-05-05 17:53 40.05548 15.33530 36091 ft 473 kts 159°
2026-05-05 17:54 40.02564 15.35342 35831 ft 473 kts 159°
2026-05-05 17:54 39.99578 15.37157 35581 ft 474 kts 159°
2026-05-05 17:54 39.96590 15.38976 35332 ft 474 kts 159°
2026-05-05 17:54 39.93600 15.40793 35083 ft 474 kts 159°
2026-05-05 17:55 39.90607 15.42606 34842 ft 475 kts 159°
2026-05-05 17:55 39.87613 15.44419 34614 ft 475 kts 159°
2026-05-05 17:55 39.84611 15.46230 34356 ft 475 kts 159°
2026-05-05 17:55 39.81613 15.48042 34105 ft 476 kts 159°
2026-05-05 17:56 39.78591 15.49869 33104 ft 483 kts 159°
2026-05-05 17:56 39.75526 15.51721 32185 ft 487 kts 160°
2026-05-05 17:56 39.72440 15.53580 31219 ft 491 kts 160°
2026-05-05 17:56 39.69358 15.55433 30705 ft 485 kts 160°
2026-05-05 17:57 39.66297 15.57274 30038 ft 483 kts 160°
2026-05-05 17:57 39.63258 15.59102 29372 ft 480 kts 160°
2026-05-05 17:57 39.60284 15.60894 28768 ft 475 kts 160°
2026-05-05 17:57 39.57299 15.62689 28152 ft 470 kts 160°
2026-05-05 17:58 39.54346 15.64463 27544 ft 466 kts 159°
2026-05-05 17:58 39.51419 15.66217 26952 ft 461 kts 159°
2026-05-05 17:58 39.48518 15.67954 26365 ft 458 kts 159°
2026-05-05 17:58 39.45637 15.69674 25787 ft 454 kts 159°
2026-05-05 17:59 39.42785 15.71376 25218 ft 450 kts 159°
2026-05-05 17:59 39.39954 15.73063 24663 ft 446 kts 159°
2026-05-05 17:59 39.37150 15.74730 24125 ft 442 kts 159°
2026-05-05 17:59 39.34368 15.76381 23589 ft 438 kts 159°
2026-05-05 18:00 39.31613 15.78016 23037 ft 432 kts 159°
2026-05-05 18:00 39.28920 15.79674 22556 ft 427 kts 155°
2026-05-05 18:00 39.26456 15.81785 22094 ft 425 kts 144°
2026-05-05 18:00 39.24216 15.84230 21636 ft 419 kts 143°
2026-05-05 18:01 39.22012 15.86647 21181 ft 413 kts 143°
2026-05-05 18:01 39.19844 15.89039 20724 ft 408 kts 141°
2026-05-05 18:01 39.17768 15.91508 20264 ft 405 kts 139°
2026-05-05 18:01 39.15796 15.94011 19819 ft 401 kts 138°
2026-05-05 18:02 39.13848 15.96568 19350 ft 398 kts 137°
2026-05-05 18:02 39.11924 15.99114 18894 ft 395 kts 137°
2026-05-05 18:02 39.10008 16.01636 18432 ft 393 kts 137°
2026-05-05 18:02 39.08094 16.04128 17921 ft 390 kts 137°
2026-05-05 18:03 39.06185 16.06582 17464 ft 386 kts 137°
2026-05-05 18:03 39.04288 16.08999 17004 ft 382 kts 138°
2026-05-05 18:03 39.02403 16.11393 16557 ft 379 kts 138°
2026-05-05 18:03 39.00530 16.13764 16101 ft 376 kts 138°
2026-05-05 18:04 38.98670 16.16120 15659 ft 374 kts 138°
2026-05-05 18:04 38.96821 16.18462 15214 ft 372 kts 138°
2026-05-05 18:04 38.94984 16.20792 14765 ft 370 kts 138°
2026-05-05 18:04 38.93160 16.23110 14328 ft 368 kts 137°
2026-05-05 18:05 38.91352 16.25426 13882 ft 367 kts 135°
2026-05-05 18:05 38.89816 16.28038 13393 ft 367 kts 122°
2026-05-05 18:05 38.88584 16.30897 12940 ft 365 kts 120°
2026-05-05 18:05 38.87365 16.33744 12493 ft 362 kts 120°
2026-05-05 18:06 38.86151 16.36565 12028 ft 360 kts 120°
2026-05-05 18:06 38.85346 16.38426 11728 ft 359 kts 119°
2026-05-05 18:06 38.83732 16.42158 11105 ft 357 kts 119°
2026-05-05 18:06 38.82527 16.44935 10648 ft 355 kts 120°
2026-05-05 18:07 38.81337 16.47678 10433 ft 346 kts 120°
2026-05-05 18:07 38.80191 16.50324 10305 ft 333 kts 120°
2026-05-05 18:07 38.79102 16.52885 10184 ft 322 kts 116°
2026-05-05 18:07 38.78391 16.55520 9943 ft 315 kts 101°
2026-05-05 18:08 38.78025 16.58310 9354 ft 319 kts 97°
2026-05-05 18:08 38.78016 16.61069 9219 ft 303 kts 74°
2026-05-05 18:08 38.78887 16.63414 9084 ft 284 kts 47°
2026-05-05 18:08 38.80366 16.64965 8835 ft 270 kts 21°
2026-05-05 18:09 38.82131 16.65596 8480 ft 262 kts
2026-05-05 18:09 38.83910 16.65333 7922 ft 259 kts 334°
2026-05-05 18:09 38.85314 16.64008 7541 ft 248 kts 308°
2026-05-05 18:09 38.86049 16.62078 6955 ft 239 kts 282°
2026-05-05 18:10 38.86308 16.59992 6365 ft 233 kts 278°
2026-05-05 18:10 38.86540 16.57987 5968 ft 221 kts 278°
2026-05-05 18:10 38.86764 16.56103 5662 ft 205 kts 278°
2026-05-05 18:10 38.86971 16.54379 5433 ft 185 kts 278°
2026-05-05 18:11 38.87160 16.52802 5138 ft 175 kts 279°
2026-05-05 18:11 38.87344 16.51262 4703 ft 175 kts 278°
2026-05-05 18:11 38.87528 16.49716 4281 ft 173 kts 278°
2026-05-05 18:11 38.87707 16.48213 3785 ft 171 kts 278°
2026-05-05 18:12 38.87888 16.46699 3357 ft 176 kts 278°
2026-05-05 18:12 38.88074 16.45136 3035 ft 178 kts 278°
2026-05-05 18:12 38.88260 16.43567 2776 ft 178 kts 278°
2026-05-05 18:12 38.88446 16.42005 2548 ft 176 kts 278°
2026-05-05 18:13 38.88630 16.40448 2307 ft 176 kts 279°
2026-05-05 18:13 38.88813 16.38900 2074 ft 175 kts 279°
2026-05-05 18:13 38.88996 16.37357 1843 ft 175 kts 279°
2026-05-05 18:13 38.89178 16.35816 1607 ft 170 kts 279°
2026-05-05 18:14 38.89345 16.34399 1367 ft 154 kts 278°
2026-05-05 18:14 38.89501 16.33071 1177 ft 148 kts 278°
2026-05-05 18:14 38.89654 16.31782 988 ft 145 kts 278°
2026-05-05 18:14 38.89804 16.30506 787 ft 144 kts 278°
2026-05-05 18:15 38.89953 16.29239 616 ft 143 kts 278°
2026-05-05 18:15 38.90101 16.27969 409 ft 144 kts 278°
2026-05-05 18:15 38.90250 16.26697 213 ft 145 kts 278°
2026-05-05 18:15 38.90402 16.25428 54 ft 142 kts 278°
2026-05-05 18:16 38.90530 16.24329 32 ft 97 kts 279°
2026-05-05 18:16 38.90605 16.23738 30 ft 35 kts 289°
2026-05-05 18:16 38.90706 16.23535 29 ft 26 kts 312°
2026-05-05 18:16 38.90815 16.23498 28 ft 15 kts 32°
2026-05-05 18:17 38.90836 16.23613 29 ft 14 kts 100°
2026-05-05 18:17 38.90822 16.23729 30 ft 13 kts 97°
2026-05-05 18:17 38.90810 16.23836 30 ft 12 kts 98°
2026-05-05 18:17 38.90799 16.23935 31 ft 11 kts 98°
2026-05-05 18:18 38.90788 16.24026 32 ft 10 kts 98°
2026-05-05 18:18 38.90778 16.24109 32 ft 10 kts 98°
2026-05-05 18:18 38.90793 16.24188 33 ft 9 kts 48°
2026-05-05 18:18 38.90829 16.24247 33 ft 8 kts 61°
2026-05-05 18:19 38.90826 16.24318 34 ft 8 kts 98°
2026-05-05 18:19 38.90817 16.24393 34 ft 12 kts 98°
2026-05-05 18:19 38.90805 16.24509 35 ft 13 kts 98°
2026-05-05 18:19 38.90792 16.24618 36 ft 12 kts 98°
2026-05-05 18:20 38.90811 16.24667 36 ft 5 kts
2026-05-05 18:20 38.90836 16.24672 36 ft 1 kts 10°
2026-05-05 18:20 38.90843 16.24674 36 ft 1 kts 11°
2026-05-05 18:20 38.90850 16.24675 36 ft 0 kts 11°